Regional Weather Roundup
Issued by NWS Portland, ME

Home | Current Version | Previous Version | Text Only | Print | Product List | Glossary On
Versions: 1 2 3 4 5 6 7 8 9 10 11 12 13 14 15 16 17 18 19 20 21 22 23 24 25 26 27 28 29 30 31 32 33 34 35 36 37 38 39 40 41 42 43 44 45 46 47 48 49 50
000
ASUS41 KGYX 191210
RWRGYX
WEATHER ROUNDUP FOR MAINE AND NEW HAMPSHIRE
NATIONAL WEATHER SERVICE GRAY ME
700 AM EST SUN FEB 19 2017

MEZ002-005-006-010-012-015-018-020-021-024-026-027-029-191300-
MAINE

CITY           SKY/WX    TMP DP  RH WIND       PRES   REMARKS
PORTLAND       CLOUDY    38  31  76 SW9       29.59R
6HR MIN TEMP:  28; 6HR MAX TEMP:  39;

SANFORD        CLOUDY    33  32  96 SW7       29.61R
BAR HARBOR     CLOUDY    36  31  82 SW7       29.55R
WISCASSET      PTCLDY    26  23  88 CALM      29.59R
6HR MIN TEMP:  25; 6HR MAX TEMP:  31;

ROCKLAND       CLEAR     33  31  92 CALM      29.58R
FRYEBURG       CLEAR     47  31  53 CALM      29.57R
6HR MIN TEMP:  46; 6HR MAX TEMP:  52;

LEWISTONAUBURN CLOUDY    26  24  92 CALM      29.57R
AUGUSTA        CLOUDY    38  30  73 SW6       29.56R
6HR MIN TEMP:  28; 6HR MAX TEMP:  40;

WATERVILLE     CLEAR     31  30  96 SW3       29.52R
BANGOR         MOCLDY    28  26  92 CALM      29.54R
6HR MIN TEMP:  18; 6HR MAX TEMP:  30;

GREENVILLE       N/A     40  34  79 VRB5      29.45R
6HR MIN TEMP:  39; 6HR MAX TEMP:  43;

MILLINOCKET    CLOUDY    31  26  82 CALM      29.50R
6HR MIN TEMP:  28; 6HR MAX TEMP:  31; 6HR PCP: TRACE;

HOULTON        CLOUDY    33  28  81 SW5       29.46R
6HR MIN TEMP:  33; 6HR MAX TEMP:  34;

PRESQUE ISLE   CLOUDY    29  26  89 CALM      29.47R
6HR MIN TEMP:  27; 6HR MAX TEMP:  30; 6HR PCP: TRACE;

FRENCHVILLE    CLOUDY    26  21  81 NW12      29.44R WCI  16
6HR MIN TEMP:  25; 6HR MAX TEMP:  26; 6HR PCP:  0.01;

CARIBOU        CLOUDY    29  26  89 NW6       29.45R
6HR MIN TEMP:  27; 6HR MAX TEMP:  30; 6HR PCP: TRACE;

$$

NHZ002-005-008-009-011-012-014-191300-
NEW HAMPSHIRE

CITY           SKY/WX    TMP DP  RH WIND       PRES   REMARKS
PORTSMOUTH     MOCLDY    43  33  67 W7        29.62R
ROCHESTER      PTCLDY    40  31  70 CALM      29.61R
6HR MIN TEMP:  32; 6HR MAX TEMP:  47;

NASHUA         MOCLDY    35  32  88 CALM      29.66R
MANCHESTER     CLOUDY    43  32  65 SW6       29.64R
6HR MIN TEMP:  32; 6HR MAX TEMP:  43;

CONCORD        PTCLDY    28  24  85 SW5       29.63R
6HR MIN TEMP:  24; 6HR MAX TEMP:  32;

LACONIA        CLEAR     42  34  73 MISG      29.61
PLYMOUTH       FAIR      29  28  94 CALM      29.60R
BERLIN         CLOUDY    44  32  62 VRB5      29.56S
6HR MIN TEMP:  37; 6HR MAX TEMP:  46;

WHITEFIELD     CLEAR     27  25  92 CALM      29.59S
6HR MIN TEMP:  27; 6HR MAX TEMP:  43;

JAFFREY        MOCLDY    32  31  96 CALM      29.66R
6HR MIN TEMP:  31; 6HR MAX TEMP:  42;

KEENE          PTCLDY    21  20  96 CALM      29.68R FOG
LEBANON        CLEAR     26  25  96 CALM      29.64R FOG
6HR MIN TEMP:  22; 6HR MAX TEMP:  32;

MT WASHINGTON  FOG       23  23 100 W71G82      N/A  VSB 0   WCI  -1
6HR MIN TEMP:  23; 6HR MAX TEMP:  26;

$$

VTZ005-007-008-191300-
VERMONT

CITY           SKY/WX    TMP DP  RH WIND       PRES   REMARKS
ST JOHNSBURY     N/A     27  26  96 MISG      29.60R
MONTPELIER     MOCLDY    37  32  82 S5        29.64S
BURLINGTON     MOCLDY    43  34  70 S8        29.63R
$$

MAZ007-012-024-CTZ003-RIZ002-NYZ038-NYZ072-191300-
SOUTHERN NEW ENGLAND AND NY

CITY           SKY/WX    TMP DP  RH WIND       PRES   REMARKS
BOSTON         CLOUDY    41  34  76 SW12      29.67R
WORCESTER      MOCLDY    41  33  73 SW8       29.67R
NANTUCKET      CLEAR     43  35  73 W13       29.70R
PROVIDENCE     MOCLDY    45  32  60 W12       29.70R
HARTFORD       MOCLDY    34  30  85 VRB3      29.72R
ALBANY         MOCLDY    33  29  85 CALM      29.74R
NEW YORK CITY  MOCLDY    58  34  40 W9        29.76R
$$

ANZ081-ANZ082-ANZ150-NHZ014-MEZ023>029-191300-
COASTAL MARINE OBSERVATIONS

STATION/POSITION TIME  TEMP    WIND        PRES    WAVE
                       AIR SEA DIR/SP/G            HT/PER
                 (UTC) (F)     (DEG/KT/KT) (MB)    (FT/S)
MOUNT DESERT ROC 1200   44                 1001.1R
MATINICUS ROCK   1200   43     250/ 18/ 18 1001.0R
ISLE OF SHOALS   1200   52     260/ 20/ 20 1002.8R
JEFFREYS LEDGE   1106      43                N/A     3/ 6
CASHES LEDGE BUO 1050   48 43              1000.6    5/ 6
GEORGES BANK BUO 1050   47 44              1003.4    6/ 6
$$

.............KEY..............
   WCI - WIND CHILL
   TC  - TEMPERATURE IN CELSIUS
   VSB - VISIBILITY IN MILES
   HX  - HEAT INDEX
   FAIR- INDICATES FEW OR NO CLOUDS BELOW 12,000 FT, WITH NO
         SIGNIFICANT WEATHER AND/OR OBSTRUCTIONS TO VISIBILITY.






USA.gov is the U.S. government's official web portal to all federal, state and local government web resources and services.